Regional Weather Roundup
Issued by NWS

Home | Current Version | Previous Version | Graphics & Text | Print | Product List | Glossary On
Versions: 1 2 3 4 5 6 7 8 9 10 11 12 13 14 15 16 17 18 19 20 21 22 23 24 25 26 27 28 29 30 31 32 33 34 35 36 37 38 39 40 41 42 43 44 45 46 47 48 49 50
000
ASUS43 KLMK 271502
RWRKY
KENTUCKY REGIONAL WEATHER ROUNDUP
NATIONAL WEATHER SERVICE LOUISVILLE KY
1100 AM EDT SAT MAY 27 2017

NOTE "FAIR" INDICATES FEW OR NO CLOUDS BELOW 12,000 FEET
WITH NO SIGNIFICANT WEATHER AND/OR OBSTRUCTIONS TO VISIBILITY.

KYZ001>023-026-027-061>063-070>075-271600-
WESTERN AND SOUTH CENTRAL KENTUCKY

CITY           SKY/WX    TMP DP  RH WIND       PRES   REMARKS
PADUCAH        SUNNY     80  68  66 SW12G21   29.88R
HENDERSON      MOSUNNY   77  70  79 VRB3      29.87F
OWENSBORO      CLOUDY    77  70  78 VRB3      29.88F
HOPKINSVILLE   CLOUDY    72  68  88 NE3       29.86F
BOWLING GREEN  CLOUDY    76  68  76 SW9       29.93R
GLASGOW        NOT AVBL
$$

KYZ024-025-028>034-038-045-046-053-271600-
NORTH CENTRAL KENTUCKY

CITY           SKY/WX    TMP DP  RH WIND       PRES   REMARKS
LOUISVILLE/SDF CLOUDY    76  69  79 SW7       29.89S
LOUISVILLE/LOU CLOUDY    76  70  82 SW5       29.89F
FORT KNOX      CLOUDY    74  68  82 SW6       29.90S
$$

KYZ035>037-039>044-047>052-055>060-089>105-271600-
NORTHEAST KENTUCKY

CITY           SKY/WX    TMP DP  RH WIND       PRES   REMARKS
LEXINGTON      CLOUDY    75  66  73 SW9       29.93S
COVINGTON      CLOUDY    74  67  78 SW6       29.88S
FRANKFORT      CLOUDY    75  66  73 SW9       29.90S
$$

KYZ054-064>069-076>088-106>120-271600-
SOUTHEAST KENTUCKY

CITY           SKY/WX    TMP DP  RH WIND       PRES   REMARKS
JACKSON        CLOUDY    73  65  75 CALM      29.96S
LONDON         CLOUDY    73  62  68 SW8       29.98S
SOMERSET       CLOUDY    72  63  73 W6        29.97S
MIDDLESBORO    CLOUDY    73  64  73 S3        30.00S
MONTICELLO     CLOUDY    76  67  73 W10G16    29.98F
$$





USA.gov is the U.S. government's official web portal to all federal, state and local government web resources and services.